Casper, WY

12:57 AM MST on December 09, 2019 (GMT -0700)
Natrona County International

Weather History for KCPR - October, 2019

Change the Weather History Date:

Monday, October 28, 2019

  Actual Average Record
Temperature  
Mean Temperature 11 °F 41 °F  
Max Temperature 23 °F 55 °F 75 °F (1990)
Min Temperature -2 °F 28 °F 7 °F (1991)
Degree Days  
Heating Degree Days 54 24  
Month to date heating degree days 701 542  
Since 1 July heating degree days 872 827  
Cooling Degree Days 0 0  
Month to date cooling degree days 0 0  
Year to date cooling degree days 441 422  
Moisture  
Dew Point 7 °F    
Average Humidity 74    
Maximum Humidity 87    
Minimum Humidity 61    
Precipitation  
Precipitation 0.01 in 0.03 in 0.99 in (1998)
Month to date precipitation 1.26 1.01  
Year to date precipitation 11.96 11.17  
Snow  
Snow 0.10 in 0.30 in - ()
Month to date snowfall 13.1 6.5  
Since 1 July snowfall 13.1 8.3  
Since 1 September snowfall 13.1 8.3  
Snow Depth 2.00 in    
Sea Level Pressure  
Sea Level Pressure 30.15 in    
Wind  
Wind Speed 16 mph (West)    
Max Wind Speed 31 mph    
Max Gust Speed 40 mph    
Visibility 7 miles    
Events Snow    
T = Trace of Precipitation, MM = Missing Value Source: NWS Daily Summary

Daily Weather History Graph

Daily Weather History Graph

Search for Another Location

Airport or City:

Astronomy

Oct. 28, 2019 Rise Set
Actual Time 7:34 AM MDT 6:03 PM MDT
Civil Twilight 7:05 AM MDT 6:32 PM MDT
Nautical Twilight 6:32 AM MDT 7:06 PM MDT
Astronomical Twilight 5:59 AM MDT 7:38 PM MDT
Moon 7:59 AM MDT (10/28) 6:50 PM MDT (10/28)
Length of Visible Light 11h 27m
Length of Day
10h 28m
New Moon, 1% of the Moon is Illuminated
Oct 28
New Moon
Nov 4
First Quarter
Nov 12
Full
Nov 19
Last Quarter
Nov 26
New

Hourly Weather History & Observations

Time (MDT) Temp. Windchill Dew Point Humidity Pressure Visibility Wind Dir Wind Speed Gust Speed Precip Events Conditions
12:53 AM 1.9 °F -14.7 °F -2.0 °F 83% 30.36 in 10.0 mi WSW 11.5 mph - N/A   Clear
1:53 AM 1.0 °F -18.0 °F -2.9 °F 83% 30.32 in 10.0 mi SW 15.0 mph 20.7 mph N/A   Clear
2:53 AM 1.0 °F -17.3 °F -4.0 °F 79% 30.32 in 10.0 mi WSW 13.8 mph - N/A   Clear
3:53 AM -0.0 °F -15.3 °F -4.0 °F 83% 30.30 in 10.0 mi WSW 9.2 mph - N/A   Clear
4:53 AM 1.9 °F -16.9 °F -2.9 °F 80% 30.28 in 10.0 mi WSW 15.0 mph - N/A   Clear
5:53 AM -0.0 °F -17.1 °F -4.0 °F 83% 30.27 in 10.0 mi WSW 11.5 mph - N/A   Clear
6:53 AM -0.0 °F -16.3 °F -4.0 °F 83% 30.29 in 10.0 mi SW 10.4 mph - N/A   Clear
7:53 AM -0.0 °F -17.1 °F -5.1 °F 79% 30.30 in 10.0 mi WSW 11.5 mph - N/A   Clear
8:53 AM 9.0 °F -6.6 °F 1.9 °F 73% 30.24 in 10.0 mi SW 12.7 mph - N/A   Clear
9:53 AM 10.9 °F -5.4 °F 3.0 °F 70% 30.22 in 10.0 mi SW 15.0 mph - N/A   Clear
10:53 AM 12.9 °F -2.8 °F 5.0 °F 71% 30.20 in 10.0 mi SW 15.0 mph - N/A   Clear
11:53 AM 17.1 °F 0.6 °F 7.0 °F 65% 30.17 in 10.0 mi SSW 19.6 mph - N/A   Clear
12:53 PM 19.0 °F 3.2 °F 9.0 °F 65% 30.12 in 10.0 mi SSW 19.6 mph 26.5 mph N/A   Clear
1:53 PM 19.9 °F 3.2 °F 10.0 °F 65% 30.10 in 10.0 mi SSW 23.0 mph 31.1 mph N/A   Partly Cloudy
2:53 PM 21.9 °F 8.2 °F 12.9 °F 68% 30.07 in 10.0 mi SSW 16.1 mph - N/A   Mostly Cloudy
3:53 PM 21.9 °F 6.9 °F 12.0 °F 66% 30.07 in 10.0 mi SSW 19.6 mph - N/A   Overcast
4:53 PM 21.9 °F 9.8 °F 14.0 °F 72% 30.07 in 5.0 mi SW 12.7 mph - 0.00 in Snow Light Snow
5:20 PM 21.9 °F 9.2 °F 16.0 °F 78% 29.87 in 1.8 mi SW 13.8 mph - 0.00 in Snow Light Snow
5:47 PM 21.2 °F 11.7 °F 17.6 °F 86% 29.88 in 2.0 mi West 8.1 mph - 0.01 in Snow Light Snow
5:48 PM 21.0 °F 11.4 °F 17.1 °F 85% 30.09 in 2.5 mi West 8.1 mph - 0.01 in Snow Light Snow
5:53 PM 21.0 °F 14.6 °F 16.0 °F 81% 29.88 in 4.0 mi West 4.6 mph - 0.00 in Snow Light Snow
6:53 PM 18.0 °F 8.7 °F 12.0 °F 78% 30.14 in 10.0 mi NW 6.9 mph - 0.00 in   Overcast
7:53 PM 17.1 °F 5.8 °F 10.0 °F 74% 30.17 in 10.0 mi NNW 9.2 mph - N/A   Mostly Cloudy
8:37 PM 18.0 °F 4.8 °F 14.0 °F 84% 29.96 in 1.8 mi North 12.7 mph - 0.00 in Snow Light Snow
8:53 PM 16.0 °F -2.5 °F 12.0 °F 84% 30.18 in 1.5 mi North 24.2 mph - 0.00 in Snow Light Snow
9:05 PM 16.0 °F -4.4 °F 12.0 °F 84% 29.98 in 2.0 mi North 31.1 mph 38.0 mph 0.00 in Snow Light Snow
9:12 PM 15.1 °F -5.0 °F 10.9 °F 84% 29.98 in 1.5 mi North 28.8 mph 38.0 mph 0.00 in Snow Light Snow
9:22 PM 15.1 °F -3.7 °F 10.9 °F 84% 29.99 in 2.5 mi NNE 24.2 mph 36.8 mph 0.00 in Snow Light Snow
9:29 PM 15.1 °F -3.7 °F 10.9 °F 84% 29.99 in 4.0 mi NNE 24.2 mph 35.7 mph 0.00 in Snow Light Snow
9:53 PM 12.0 °F -9.2 °F 8.1 °F 84% 30.24 in 1.8 mi North 28.8 mph 40.3 mph 0.00 in Snow Light Snow
10:02 PM 10.9 °F -10.3 °F 7.0 °F 84% 30.03 in 3.0 mi North 27.6 mph 36.8 mph 0.00 in Snow Light Snow
10:53 PM 9.0 °F -11.4 °F 3.9 °F 80% 30.29 in 8.0 mi North 23.0 mph 32.2 mph 0.00 in   Overcast
11:51 PM 8.6 °F -7.0 °F 3.2 °F 79% 30.09 in 8.0 mi NNE 12.7 mph 26.5 mph N/A   Overcast
11:53 PM 8.1 °F -9.0 °F 3.0 °F 80% 30.30 in 8.0 mi NNE 15.0 mph 26.5 mph N/A   Overcast